{"data":{"norad_id":63900,"intl_designator":"2025-095L","name":"STARLINK-34118","alt_names":[],"object_type":"PAYLOAD","status":"ACTIVE","operator":null,"country":"US","launch_date":"2025-05-10","launch_site_code":"AFETR","launch_vehicle":null,"mission":null,"orbit_class":"UNKNOWN","rcs_meters":null,"size_class":null,"mass_kg":null,"dimensions":null,"purposes":["comms"],"wikipedia_slug":null,"has_3d_model":false,"image_url":null,"decayed_at":null,"tle_current":{"epoch":"2026-05-24T23:36:05.564736Z","epoch_age_seconds":66705,"freshness":"FRESH","line1":"1 63900U 25095L   26144.98339774  .00024632  00000+0  90131-3 0  9999","line2":"2 63900  42.9973 105.5483 0000698 260.0196 100.0577 15.27591945 59458","mean_motion":15.27591945,"eccentricity":6.98e-5,"inclination_deg":42.9973,"raan_deg":105.5483,"arg_perigee_deg":260.0196,"mean_anomaly_deg":100.0577,"bstar":0.00090131,"rev_number":5945,"period_min":94.266011595132,"perigee_km":482.53442035259,"apogee_km":483.49223693847,"semimajor_km":6861.1503286455,"source":"CELESTRAK","updated_at":"2026-05-25T13:38:20.176949Z"}}}